SCP
0 0 0 0 0 0 0 0 0 0 0 0 0 0 0 0 0 0 0 0 0 0
0 0 0 0 0 0 0 0 0 0 0 0 0 0 0 0 0 0 0 0 0 0
0 0 0 0 0 0 0 0 0 0 0 0 0 0 0 0 0 0 0 0 0 0
0 0 0 0 0 0 0 0 0 0 0 0 0 0 0 0 0 0 0 0 0 0
0 0 0 0 0 0 0 0 0 0 0 0 0 0 0 0 0 0 0 0 -0 -0
0 0 0 0 0 0 0 0 0 0 0 0 0 0 0 0 0 0 -0 -0 -0 -0
0 0 0 0 0 0 0 0 0 0 0 0 0 0 0 0 0 0 0 -0 -0 -0
0 0 0 0 0 0 0 0 0 0 0 0 0 0 0 0 0 0 0 0 -0 0
0 0 0 0 0 0 0 0 0 0 0 0 0 0 0 0 0 0 0 0 0 0
0 0 0 0 0 0 0 0 0 0 0 0 0 0 0 0 0 0 0 0 0 0
0 0 0 0 0 0 0 0 0 0 0 0 0 0 0 0 0 0 0 0 0 0
0 0 0 0 0 0 0 0 0 0 0 0 0 0 0 0 0 0 0 0 0 0
0 0 0 0 0 0 0 0 0 0 0 0 0 0 0 0 0 0 0 0 0 0
0 0 0 0 0 0 0 0 0 0 0 0 0 0 0 0 0 0 0 0 0 0
Wind_Speed_500mb
7 8 6 5 5 8 10 14 17 21 22 25 27 29 31 33 35 36 39 41 42 44
7 5 2 3 4 7 11 14 16 20 23 27 30 33 36 39 41 43 46 49 53 55
12 9 5 6 7 8 10 13 17 21 24 27 30 31 34 36 40 45 51 57 63 69
16 14 12 8 7 10 15 20 25 28 32 34 37 40 43 46 50 56 61 66 71 72
23 19 13 8 10 17 23 28 31 35 39 42 46 49 52 55 60 67 73 76 78 81
26 20 14 11 16 23 29 35 40 45 49 51 53 56 57 61 66 71 75 80 82 83
29 25 21 19 21 28 34 40 46 50 54 56 59 60 62 67 72 75 78 80 82 84
36 35 31 28 27 31 36 41 47 54 57 59 60 60 65 70 75 78 81 83 84 84
46 45 41 38 36 37 40 47 53 58 60 61 61 62 66 71 75 78 82 86 87 86
55 54 50 48 45 43 47 53 58 62 62 64 63 64 67 70 74 78 81 84 85 85
63 60 58 54 50 50 52 57 64 65 64 65 63 65 69 71 74 77 80 81 80 77
64 64 61 58 54 53 54 62 66 65 64 66 65 67 69 71 74 77 79 77 72 67
57 60 60 57 54 53 56 66 68 66 67 67 66 66 70 70 72 75 73 72 75 72
54 56 57 55 53 55 63 66 68 67 67 66 66 67 66 65 63 61 66 70 73 71
Wind_Direction_500mb
122 125 105 45 3 348 351 354 351 347 345 344 346 347 347 346 345 343 341 338 333 329
186 182 205 257 307 332 340 333 330 331 332 331 328 327 327 328 329 331 330 329 326 323
212 218 243 274 279 289 301 312 315 317 319 320 321 322 321 321 322 322 322 321 319 317
228 233 233 243 281 316 327 330 330 329 327 324 321 321 321 321 322 322 320 319 317 315
231 230 236 267 318 333 335 333 333 330 327 326 324 324 323 323 323 322 322 322 320 317
233 237 252 286 316 325 329 330 329 329 327 325 324 322 322 322 322 322 322 322 320 317
241 247 258 277 301 316 322 324 323 322 321 321 321 320 321 321 320 320 321 319 317 316
244 250 256 272 289 300 310 316 320 319 317 317 317 317 319 319 319 319 319 317 316 314
248 252 259 268 276 287 300 308 313 315 313 313 313 315 316 318 318 318 317 316 315 314
251 254 260 265 272 282 291 301 308 310 309 310 311 313 314 317 317 317 315 314 314 314
254 256 259 263 270 279 290 302 305 306 306 308 309 312 316 318 317 315 314 314 314 315
259 258 259 263 271 282 293 302 302 303 305 307 309 313 316 316 315 315 313 314 316 320
259 259 260 266 274 284 297 300 301 301 305 307 309 313 314 317 316 312 313 316 320 324
262 261 263 268 277 288 298 297 297 298 302 304 307 310 312 314 315 317 320 315 313 316
Wind_Speed_850mb
7 8 6 5 5 8 10 14 17 21 22 25 27 29 31 33 35 36 39 41 42 44
7 5 2 3 4 7 11 14 16 20 23 27 30 33 36 39 41 43 46 49 53 55
12 9 5 6 7 8 10 13 17 21 24 27 30 31 34 36 40 45 51 57 63 69
16 14 12 8 7 10 15 20 25 28 32 34 37 40 43 46 50 56 61 66 71 72
23 19 13 8 10 17 23 28 31 35 39 42 46 49 52 55 60 67 73 76 78 81
26 20 14 11 16 23 29 35 40 45 49 51 53 56 57 61 66 71 75 80 82 83
29 25 21 19 21 28 34 40 46 50 54 56 59 60 62 67 72 75 78 80 82 84
36 35 31 28 27 31 36 41 47 54 57 59 60 60 65 70 75 78 81 83 84 84
46 45 41 38 36 37 40 47 53 58 60 61 61 62 66 71 75 78 82 86 87 86
55 54 50 48 45 43 47 53 58 62 62 64 63 64 67 70 74 78 81 84 85 85
63 60 58 54 50 50 52 57 64 65 64 65 63 65 69 71 74 77 80 81 80 77
64 64 61 58 54 53 54 62 66 65 64 66 65 67 69 71 74 77 79 77 72 67
57 60 60 57 54 53 56 66 68 66 67 67 66 66 70 70 72 75 73 72 75 72
54 56 57 55 53 55 63 66 68 67 67 66 66 67 66 65 63 61 66 70 73 71
Wind_Direction_850mb
122 125 105 45 3 348 351 354 351 347 345 344 346 347 347 346 345 343 341 338 333 329
186 182 205 257 307 332 340 333 330 331 332 331 328 327 327 328 329 331 330 329 326 323
212 218 243 274 279 289 301 312 315 317 319 320 321 322 321 321 322 322 322 321 319 317
228 233 233 243 281 316 327 330 330 329 327 324 321 321 321 321 322 322 320 319 317 315
231 230 236 267 318 333 335 333 333 330 327 326 324 324 323 323 323 322 322 322 320 317
233 237 252 286 316 325 329 330 329 329 327 325 324 322 322 322 322 322 322 322 320 317
241 247 258 277 301 316 322 324 323 322 321 321 321 320 321 321 320 320 321 319 317 316
244 250 256 272 289 300 310 316 320 319 317 317 317 317 319 319 319 319 319 317 316 314
248 252 259 268 276 287 300 308 313 315 313 313 313 315 316 318 318 318 317 316 315 314
251 254 260 265 272 282 291 301 308 310 309 310 311 313 314 317 317 317 315 314 314 314
254 256 259 263 270 279 290 302 305 306 306 308 309 312 316 318 317 315 314 314 314 315
259 258 259 263 271 282 293 302 302 303 305 307 309 313 316 316 315 315 313 314 316 320
259 259 260 266 274 284 297 300 301 301 305 307 309 313 314 317 316 312 313 316 320 324
262 261 263 268 277 288 298 297 297 298 302 304 307 310 312 314 315 317 320 315 313 316